Retour au catalogue

CZ-4C DEB

ActifPO
NORAD 43266·DEBRIS·🇨🇳 China

Lancé Mar 31, 2018 depuis Taiyuan Satellite Launch Center

Loading…

Prochains Passages (prochaines 24 heures)

TLE

FraisSource: Space-Track

Époque: Sep 14, 2026, 00:01 UTC

1 43266U 18031H   26257.00116130  .00008116  00000-0  40624-3 0  9993
2 43266  98.1707  85.7721 0018828 354.3874   5.7144 15.17551520460234

Suivez CZ-4C DEB en temps réel avec AllMySat

Download on the App Store